{"data":{"norad_id":67671,"intl_designator":"2026-022Z","name":"STARLINK-36297","alt_names":[],"object_type":"PAYLOAD","status":"ACTIVE","operator":null,"country":"US","launch_date":"2026-02-02","launch_site_code":"AFWTR","launch_vehicle":null,"mission":null,"orbit_class":"UNKNOWN","rcs_meters":null,"size_class":null,"mass_kg":null,"dimensions":null,"purposes":["comms"],"wikipedia_slug":null,"has_3d_model":false,"image_url":null,"decayed_at":null,"tle_current":{"epoch":"2026-09-19T08:09:59.386752Z","epoch_age_seconds":169112,"freshness":"FRESH","line1":"1 67671U 26022Z   26262.34027068  .00014263  00000+0  44318-3 0  9995","line2":"2 67671  97.2839 293.9854 0001721  91.0931 269.0509 15.33453008 35259","mean_motion":15.33453008,"eccentricity":0.0001721,"inclination_deg":97.2839,"raan_deg":293.9854,"arg_perigee_deg":91.0931,"mean_anomaly_deg":269.0509,"bstar":0.00044318,"rev_number":3525,"period_min":93.905714259749,"perigee_km":464.34155515036,"apogee_km":466.69714166549,"semimajor_km":6843.6563484079,"source":"CELESTRAK","updated_at":"2026-09-20T09:00:43.624953Z"}}}